When you browse on this site, cookies collect data to enhance your experience and personalize the content and advertising you see.
Visit our Privacy Policy to learn more. By continuing to use the site, you agree to this use of cookies and data.
  • In France
  • List of Countries
  • For 7 days
  • Water Temperature
  • Weather Map
  • Weather Widgets
  • user-avatar
    Login

    Hourly Weather Djelfa

    Today, 6 June, Saturday

    Time Temperature Precipitation Wind Pressure Humidity
    00:00 +19°C° 0 mm 3 mps 665 mmHg 59%
    01:00 +18°C° 0 mm 2 mps 664 mmHg 60%
    02:00 +18°C° 0 mm 2 mps 664 mmHg 61%
    03:00 +17°C° 0 mm 2 mps 664 mmHg 61%
    04:00 +18°C° 0 mm 3 mps 664 mmHg 56%
    05:00 +19°C° 0 mm 3 mps 665 mmHg 50%
    06:00 +19°C° 0 mm 4 mps 665 mmHg 45%
    07:00 +21°C° 0 mm 4 mps 666 mmHg 38%
    08:00 +22°C° 0 mm 4 mps 666 mmHg 31%
    09:00 +25°C° 0 mm 4 mps 666 mmHg 24%
    10:00 +26°C° 0 mm 4 mps 666 mmHg 21%
    11:00 +28°C° 0 mm 5 mps 666 mmHg 17%
    12:00 +30°C° 0 mm 5 mps 667 mmHg 14%
    13:00 +30°C° 0 mm 6 mps 666 mmHg 15%
    14:00 +32°C° 0 mm 6 mps 666 mmHg 16%
    15:00 +33°C° 0 mm 7 mps 665 mmHg 17%
    16:00 +32°C° 0 mm 7 mps 665 mmHg 18%
    17:00 +32°C° 0 mm 7 mps 664 mmHg 20%
    18:00 +30°C° 0 mm 7 mps 664 mmHg 21%
    19:00 +29°C° 0.1 mm 5 mps 664 mmHg 24%
    20:00 +28°C° 0.1 mm 3 mps 664 mmHg 27%
    21:00 +27°C° 0.1 mm 1 mps 664 mmHg 30%
    22:00 +27°C° 0.2 mm 2 mps 663 mmHg 31%
    23:00 +26°C° 0.2 mm 3 mps 663 mmHg 31%

    Tomorrow, 7 June, Sunday

    Time Temperature Precipitation Wind Pressure Humidity
    00:00 +26°C° 0.2 mm 4 mps 663 mmHg 32%
    01:00 +25°C° 0 mm 5 mps 662 mmHg 35%
    02:00 +23°C° 0 mm 5 mps 662 mmHg 37%
    03:00 +22°C° 0 mm 5 mps 662 mmHg 40%
    04:00 +21°C° 0 mm 6 mps 662 mmHg 44%
    05:00 +20°C° 0 mm 7 mps 662 mmHg 48%
    06:00 +18°C° 0 mm 8 mps 662 mmHg 53%
    07:00 +20°C° 0 mm 8 mps 662 mmHg 49%
    08:00 +21°C° 0 mm 8 mps 662 mmHg 45%
    09:00 +22°C° 0 mm 8 mps 663 mmHg 41%
    10:00 +23°C° 0 mm 8 mps 663 mmHg 38%
    11:00 +26°C° 0 mm 7 mps 663 mmHg 35%
    12:00 +27°C° 0 mm 6 mps 664 mmHg 32%
    13:00 +27°C° 0 mm 6 mps 663 mmHg 32%
    14:00 +27°C° 0 mm 6 mps 663 mmHg 31%
    15:00 +28°C° 0 mm 6 mps 663 mmHg 30%
    16:00 +27°C° 0 mm 6 mps 663 mmHg 30%
    17:00 +27°C° 0 mm 6 mps 663 mmHg 30%
    18:00 +26°C° 0 mm 7 mps 663 mmHg 31%
    19:00 +24°C° 0 mm 7 mps 663 mmHg 35%
    20:00 +23°C° 0 mm 7 mps 663 mmHg 40%
    21:00 +22°C° 0 mm 7 mps 663 mmHg 44%
    22:00 +21°C° 0 mm 6 mps 663 mmHg 48%
    23:00 +20°C° 0 mm 6 mps 663 mmHg 53%

    Day after tomorrow, 8 June, Monday

    Time Temperature Precipitation Wind Pressure Humidity
    00:00 +19°C° 0 mm 5 mps 662 mmHg 57%
    01:00 +19°C° 0 mm 5 mps 662 mmHg 58%
    02:00 +17°C° 0 mm 5 mps 662 mmHg 59%
    03:00 +18°C° 0 mm 4 mps 662 mmHg 60%
    04:00 +17°C° 0 mm 5 mps 662 mmHg 60%
    05:00 +17°C° 0 mm 5 mps 662 mmHg 60%
    06:00 +16°C° 0 mm 6 mps 662 mmHg 61%
    07:00 +19°C° 0 mm 6 mps 663 mmHg 56%
    08:00 +20°C° 0 mm 6 mps 663 mmHg 51%
    09:00 +21°C° 0 mm 6 mps 663 mmHg 47%
    10:00 +22°C° 0 mm 5 mps 663 mmHg 43%
    11:00 +23°C° 0 mm 4 mps 663 mmHg 39%
    12:00 +25°C° 0 mm 4 mps 663 mmHg 35%
    13:00 +25°C° 0.1 mm 4 mps 663 mmHg 35%
    14:00 +23°C° 0.1 mm 4 mps 662 mmHg 35%
    15:00 +23°C° 0.1 mm 4 mps 662 mmHg 35%
    16:00 +23°C° 0 mm 5 mps 662 mmHg 35%
    17:00 +23°C° 0 mm 6 mps 662 mmHg 35%
    18:00 +23°C° 0 mm 7 mps 662 mmHg 34%
    19:00 +22°C° 0 mm 7 mps 662 mmHg 42%
    20:00 +20°C° 0 mm 8 mps 663 mmHg 49%
    21:00 +18°C° 0 mm 8 mps 663 mmHg 57%
    22:00 +17°C° 0 mm 8 mps 663 mmHg 60%
    23:00 +16°C° 0 mm 7 mps 663 mmHg 62%

    9 June, Tuesday

    Time Temperature Precipitation Wind Pressure Humidity
    00:00 +15°C° 0 mm 7 mps 663 mmHg 65%
    01:00 +15°C° 0 mm 6 mps 662 mmHg 64%
    02:00 +14°C° 0 mm 6 mps 662 mmHg 63%
    03:00 +14°C° 0 mm 5 mps 662 mmHg 63%
    04:00 +14°C° 0 mm 6 mps 662 mmHg 62%
    05:00 +14°C° 0 mm 6 mps 662 mmHg 61%
    06:00 +14°C° 0 mm 7 mps 662 mmHg 61%
    07:00 +15°C° 0 mm 7 mps 663 mmHg 55%
    08:00 +17°C° 0 mm 6 mps 663 mmHg 49%
    09:00 +19°C° 0 mm 6 mps 664 mmHg 44%
    10:00 +20°C° 0 mm 6 mps 664 mmHg 39%
    11:00 +22°C° 0 mm 5 mps 664 mmHg 35%
    12:00 +23°C° 0 mm 5 mps 664 mmHg 31%
    13:00 +23°C° 0 mm 5 mps 664 mmHg 29%
    14:00 +25°C° 0 mm 5 mps 664 mmHg 28%
    15:00 +25°C° 0 mm 5 mps 664 mmHg 27%
    16:00 +25°C° 0 mm 5 mps 664 mmHg 27%
    17:00 +25°C° 0 mm 5 mps 664 mmHg 27%
    18:00 +25°C° 0 mm 5 mps 664 mmHg 27%
    19:00 +23°C° 0 mm 5 mps 664 mmHg 31%
    20:00 +22°C° 0 mm 4 mps 665 mmHg 34%
    21:00 +21°C° 0 mm 4 mps 665 mmHg 38%
    22:00 +20°C° 0 mm 4 mps 665 mmHg 45%
    23:00 +19°C° 0 mm 4 mps 664 mmHg 52%

    10 June, Wednesday

    Time Temperature Precipitation Wind Pressure Humidity
    00:00 +17°C° 0 mm 4 mps 664 mmHg 58%
    01:00 +17°C° 0 mm 3 mps 664 mmHg 58%
    02:00 +17°C° 0 mm 3 mps 663 mmHg 57%
    03:00 +17°C° 0 mm 3 mps 663 mmHg 57%
    04:00 +17°C° 0 mm 3 mps 664 mmHg 55%
    05:00 +17°C° 0 mm 3 mps 664 mmHg 54%
    06:00 +17°C° 0 mm 2 mps 664 mmHg 53%
    07:00 +18°C° 0.4 mm 3 mps 665 mmHg 55%
    08:00 +18°C° 0.4 mm 3 mps 665 mmHg 57%
    09:00 +18°C° 0.4 mm 4 mps 665 mmHg 59%
    10:00 +20°C° 0.2 mm 3 mps 665 mmHg 53%
    11:00 +21°C° 0.2 mm 2 mps 665 mmHg 48%
    12:00 +23°C° 0.2 mm 2 mps 665 mmHg 43%
    13:00 +24°C° 0.1 mm 2 mps 665 mmHg 40%
    14:00 +25°C° 0.1 mm 3 mps 665 mmHg 37%
    15:00 +26°C° 0.1 mm 3 mps 665 mmHg 33%
    16:00 +24°C° 0.7 mm 3 mps 664 mmHg 40%
    17:00 +22°C° 0.7 mm 4 mps 664 mmHg 46%
    18:00 +20°C° 0.7 mm 4 mps 663 mmHg 53%
    19:00 +20°C° 0.9 mm 4 mps 664 mmHg 57%
    20:00 +19°C° 0.9 mm 4 mps 664 mmHg 61%
    21:00 +18°C° 0.9 mm 4 mps 664 mmHg 65%
    22:00 +18°C° 0.6 mm 3 mps 664 mmHg 66%
    23:00 +18°C° 0.6 mm 3 mps 664 mmHg 68%

    11 June, Thursday

    Time Temperature Precipitation Wind Pressure Humidity
    00:00 +17°C° 0.6 mm 2 mps 664 mmHg 70%
    01:00 +17°C° 0.4 mm 2 mps 664 mmHg 71%
    02:00 +18°C° 0.4 mm 1 mps 663 mmHg 72%
    03:00 +18°C° 0.4 mm 1 mps 663 mmHg 74%
    04:00 +18°C° 0.3 mm 1 mps 664 mmHg 71%
    05:00 +19°C° 0.3 mm 1 mps 664 mmHg 68%
    06:00 +19°C° 0.3 mm 1 mps 664 mmHg 65%
    07:00 +19°C° 0 mm 2 mps 664 mmHg 60%
    08:00 +21°C° 0 mm 2 mps 664 mmHg 55%
    09:00 +22°C° 0 mm 3 mps 665 mmHg 49%
    10:00 +24°C° 0 mm 3 mps 665 mmHg 45%
    11:00 +25°C° 0 mm 4 mps 664 mmHg 40%
    12:00 +26°C° 0 mm 5 mps 664 mmHg 35%
    13:00 +26°C° 0 mm 5 mps 664 mmHg 32%
    14:00 +27°C° 0 mm 6 mps 664 mmHg 28%
    15:00 +27°C° 0 mm 6 mps 664 mmHg 25%
    16:00 +27°C° 0 mm 6 mps 664 mmHg 23%
    17:00 +26°C° 0 mm 7 mps 664 mmHg 21%
    18:00 +26°C° 0 mm 7 mps 664 mmHg 20%
    19:00 +24°C° 0 mm 6 mps 664 mmHg 23%
    20:00 +23°C° 0 mm 5 mps 664 mmHg 27%
    21:00 +21°C° 0 mm 5 mps 664 mmHg 30%
    22:00 +20°C° 0 mm 4 mps 664 mmHg 35%
    23:00 +20°C° 0 mm 3 mps 664 mmHg 39%
    Show more